timestamp,wind_dir_avg,wind_spd_avg,wind_spd_max_dir,wind_spd_gust,battery_voltage,lat,long
2024-01-23 00:04:00+00:00,247.0,4.4,239.0,5.09,12.25,47.59359,-54.27349
2024-01-23 00:14:00+00:00,240.0,5.94,250.0,7.34,12.25,47.59359,-54.27349
2024-01-23 00:24:00+00:00,236.0,6.75,241.0,9.5,12.25,47.59359,-54.27349
2024-01-23 00:34:00+00:00,244.0,6.31,244.0,7.99,12.25,47.59359,-54.27349
2024-01-23 00:44:00+00:00,233.0,6.32,246.0,8.23,12.25,47.59359,-54.27349
2024-01-23 00:54:00+00:00,246.0,7.53,242.0,9.43,12.25,47.59359,-54.27349
2024-01-23 01:04:00+00:00,243.0,8.56,238.0,9.81,12.25,47.59359,-54.27349
2024-01-23 01:14:01+00:00,251.0,12.68,252.0,14.32,12.17,47.59359,-54.27349
2024-01-23 01:24:01+00:00,247.0,8.75,243.0,11.39,12.17,47.59359,-54.27349
2024-01-23 01:34:01+00:00,256.0,9.54,268.0,13.48,12.17,47.59359,-54.27349
2024-01-23 01:44:01+00:00,251.0,10.89,255.0,14.27,12.17,47.59359,-54.27349
2024-01-23 01:54:01+00:00,254.0,11.22,254.0,12.72,12.17,47.59359,-54.27349
2024-01-23 02:04:01+00:00,250.0,10.52,253.0,13.43,12.17,47.59359,-54.27349
2024-01-23 02:14:00+00:00,252.0,8.79,255.0,10.27,12.17,47.59359,-54.27349
2024-01-23 02:24:00+00:00,248.0,10.42,252.0,11.47,12.17,47.59359,-54.27349
2024-01-23 02:34:00+00:00,256.0,11.17,258.0,12.85,12.17,47.59359,-54.27349
2024-01-23 02:44:00+00:00,250.0,11.32,250.0,12.53,12.17,47.59359,-54.27349
2024-01-23 02:54:00+00:00,242.0,12.13,239.0,13.79,12.17,47.59359,-54.27349
2024-01-23 03:04:00+00:00,244.0,12.07,240.0,13.69,12.17,47.59359,-54.27349
2024-01-23 03:14:00+00:00,242.0,10.08,249.0,12.08,12.17,47.59359,-54.27349
2024-01-23 03:24:00+00:00,245.0,10.8,253.0,11.72,12.17,47.59359,-54.27349
2024-01-23 03:34:00+00:00,244.0,11.53,252.0,13.79,12.17,47.59359,-54.27349
2024-01-23 03:44:00+00:00,251.0,11.32,249.0,12.02,12.17,47.59359,-54.27349
2024-01-23 03:54:00+00:00,235.0,11.0,234.0,13.1,12.17,47.59359,-54.27349
2024-01-23 04:04:00+00:00,242.0,11.71,243.0,13.07,12.17,47.59359,-54.27349
2024-01-23 04:14:00+00:00,244.0,11.27,238.0,12.52,12.17,47.59359,-54.27349
2024-01-23 04:24:00+00:00,244.0,11.53,240.0,13.6,12.17,47.59359,-54.27349
2024-01-23 04:34:00+00:00,234.0,10.61,239.0,12.31,12.17,47.59359,-54.27349
2024-01-23 04:44:00+00:00,235.0,10.74,236.0,12.49,12.17,47.59359,-54.27349
2024-01-23 04:54:00+00:00,242.0,10.89,250.0,12.49,12.17,47.59359,-54.27349
2024-01-23 05:04:00+00:00,236.0,10.66,236.0,12.3,12.17,47.59359,-54.27349
2024-01-23 05:14:01+00:00,233.0,10.71,229.0,12.95,12.09,47.59359,-54.27349
2024-01-23 05:24:01+00:00,233.0,11.76,233.0,12.88,12.09,47.59359,-54.27349
2024-01-23 05:34:01+00:00,245.0,10.24,245.0,11.91,12.09,47.59359,-54.27349
2024-01-23 05:44:01+00:00,241.0,13.47,242.0,15.46,12.09,47.59359,-54.27349
2024-01-23 05:54:01+00:00,237.0,12.55,243.0,14.62,12.09,47.59359,-54.27349
2024-01-23 06:04:01+00:00,248.0,12.59,248.0,14.12,12.09,47.59359,-54.27349
2024-01-23 06:14:00+00:00,241.0,12.88,245.0,14.89,12.09,47.59359,-54.27349
2024-01-23 06:24:00+00:00,243.0,12.07,248.0,13.16,12.09,47.59359,-54.27349
2024-01-23 06:34:00+00:00,238.0,12.23,236.0,13.23,12.09,47.59359,-54.27349
2024-01-23 06:44:00+00:00,245.0,12.06,242.0,12.8,12.09,47.59359,-54.27349
2024-01-23 06:54:00+00:00,243.0,10.22,233.0,11.88,12.09,47.59359,-54.27349
2024-01-23 07:04:00+00:00,237.0,10.44,235.0,11.86,12.09,47.59359,-54.27349
2024-01-23 07:14:00+00:00,232.0,11.44,234.0,12.63,12.09,47.59359,-54.27349
2024-01-23 07:24:00+00:00,233.0,11.25,234.0,12.53,12.09,47.59359,-54.27349
2024-01-23 07:34:00+00:00,233.0,12.21,234.0,13.11,12.09,47.59359,-54.27349
2024-01-23 07:44:00+00:00,239.0,11.54,238.0,13.19,12.09,47.59359,-54.27349
2024-01-23 07:54:00+00:00,237.0,10.26,239.0,11.83,12.09,47.59359,-54.27349
2024-01-23 08:04:00+00:00,236.0,9.67,237.0,11.26,12.09,47.59359,-54.27349
2024-01-23 08:14:00+00:00,236.0,10.21,231.0,12.14,12.09,47.59359,-54.27349
2024-01-23 08:24:00+00:00,238.0,10.76,237.0,11.8,12.09,47.59359,-54.27349
2024-01-23 08:34:00+00:00,232.0,9.51,237.0,10.92,12.09,47.59359,-54.27349
2024-01-23 08:44:00+00:00,234.0,8.91,234.0,10.62,12.09,47.59359,-54.27349
2024-01-23 08:54:00+00:00,233.0,9.02,232.0,10.95,12.09,47.59359,-54.27349
2024-01-23 09:04:00+00:00,235.0,8.94,232.0,11.06,12.09,47.59359,-54.27349
2024-01-23 09:14:00+00:00,238.0,8.88,235.0,10.32,12.09,47.59359,-54.27349
2024-01-23 09:24:00+00:00,241.0,9.54,249.0,10.91,12.09,47.59359,-54.27349
2024-01-23 09:34:00+00:00,231.0,9.01,240.0,10.53,12.09,47.59359,-54.27349
2024-01-23 09:44:00+00:00,235.0,9.74,235.0,11.24,12.09,47.59359,-54.27349
2024-01-23 09:54:00+00:00,241.0,7.27,240.0,8.77,12.09,47.59359,-54.27349
2024-01-23 10:04:00+00:00,243.0,10.67,241.0,12.11,12.09,47.59359,-54.27349
2024-01-23 10:14:00+00:00,245.0,10.97,238.0,12.33,12.09,47.59359,-54.27349
2024-01-23 10:24:00+00:00,247.0,10.7,244.0,12.45,12.09,47.59359,-54.27349
2024-01-23 10:34:00+00:00,245.0,10.47,248.0,12.69,12.09,47.59359,-54.27349
2024-01-23 10:44:00+00:00,253.0,11.13,256.0,12.58,12.09,47.59359,-54.27349
2024-01-23 10:54:00+00:00,247.0,11.29,254.0,12.5,12.09,47.59359,-54.27349
2024-01-23 11:04:00+00:00,243.0,11.29,235.0,13.07,12.09,47.59359,-54.27349
2024-01-23 11:14:00+00:00,240.0,10.7,242.0,12.06,12.09,47.59359,-54.27349
2024-01-23 11:24:00+00:00,241.0,10.84,237.0,12.07,12.09,47.59359,-54.27349
2024-01-23 11:34:00+00:00,236.0,10.32,238.0,11.44,12.09,47.59359,-54.27349
2024-01-23 11:44:00+00:00,245.0,11.02,240.0,12.62,12.09,47.59359,-54.27349
2024-01-23 11:54:00+00:00,244.0,10.01,248.0,12.08,12.09,47.59359,-54.27349
2024-01-23 12:04:00+00:00,244.0,9.26,242.0,10.9,12.09,47.59359,-54.27349
2024-01-23 12:14:00+00:00,245.0,11.28,241.0,13.15,12.01,47.59359,-54.27349
2024-01-23 12:24:00+00:00,242.0,9.97,246.0,11.29,12.01,47.59359,-54.27349
2024-01-23 12:34:00+00:00,233.0,8.5,230.0,10.33,12.01,47.59359,-54.27349
2024-01-23 12:44:00+00:00,240.0,10.25,243.0,11.76,12.01,47.59359,-54.27349
2024-01-23 12:54:00+00:00,238.0,9.53,232.0,11.03,12.01,47.59359,-54.27349
2024-01-23 13:04:00+00:00,243.0,11.51,241.0,12.33,12.01,47.59359,-54.27349
2024-01-23 13:14:00+00:00,241.0,11.82,246.0,13.34,12.09,47.59359,-54.27349
2024-01-23 13:24:00+00:00,250.0,10.74,244.0,12.57,12.09,47.59359,-54.27349
2024-01-23 13:34:00+00:00,241.0,11.22,241.0,13.56,12.09,47.59359,-54.27349
2024-01-23 13:44:00+00:00,252.0,10.54,255.0,12.14,12.09,47.59359,-54.27349
2024-01-23 13:54:00+00:00,248.0,10.22,240.0,11.83,12.09,47.59359,-54.27349
2024-01-23 14:04:00+00:00,243.0,10.33,244.0,11.42,12.09,47.59359,-54.27349
2024-01-23 14:14:00+00:00,246.0,9.46,250.0,11.07,12.73,47.59359,-54.27349
2024-01-23 14:24:00+00:00,234.0,9.56,234.0,10.65,12.73,47.59359,-54.27349
2024-01-23 14:34:00+00:00,243.0,10.84,246.0,11.91,12.73,47.59359,-54.27349
2024-01-23 14:44:00+00:00,254.0,10.75,251.0,12.87,12.73,47.59359,-54.27349
2024-01-23 14:54:00+00:00,262.0,13.22,264.0,16.34,12.73,47.59359,-54.27349
2024-01-23 15:04:00+00:00,258.0,12.86,255.0,14.74,12.73,47.59359,-54.27349
2024-01-23 15:14:00+00:00,262.0,12.31,261.0,13.76,13.21,47.59359,-54.27349
2024-01-23 15:24:00+00:00,256.0,12.15,255.0,13.42,13.21,47.59359,-54.27349
2024-01-23 15:34:00+00:00,261.0,11.95,262.0,13.22,13.21,47.59359,-54.27349
2024-01-23 15:44:00+00:00,259.0,10.42,259.0,11.56,13.21,47.59359,-54.27349
2024-01-23 15:54:00+00:00,258.0,10.13,253.0,12.6,13.21,47.59359,-54.27349
2024-01-23 16:04:00+00:00,262.0,10.38,252.0,11.97,13.21,47.59359,-54.27349
2024-01-23 16:14:00+00:00,267.0,10.57,271.0,12.32,12.81,47.59359,-54.27349
2024-01-23 16:24:00+00:00,268.0,10.26,266.0,10.88,12.81,47.59359,-54.27349
2024-01-23 16:34:00+00:00,270.0,10.42,272.0,12.67,12.81,47.59359,-54.27349
2024-01-23 16:44:00+00:00,259.0,10.63,260.0,12.43,12.81,47.59359,-54.27349
2024-01-23 16:54:00+00:00,265.0,11.66,265.0,12.76,12.81,47.59359,-54.27349
2024-01-23 17:04:00+00:00,261.0,10.14,253.0,12.1,12.81,47.59359,-54.27349
2024-01-23 17:14:00+00:00,266.0,10.67,267.0,11.63,13.13,47.59359,-54.27349
2024-01-23 17:24:00+00:00,262.0,9.99,258.0,10.94,13.13,47.59359,-54.27349
2024-01-23 17:34:00+00:00,264.0,8.61,256.0,10.29,13.13,47.59359,-54.27349
2024-01-23 17:44:00+00:00,263.0,9.36,264.0,10.23,13.13,47.59359,-54.27349
2024-01-23 17:54:00+00:00,262.0,9.49,260.0,10.97,13.13,47.59359,-54.27349
2024-01-23 18:04:00+00:00,269.0,9.79,269.0,11.58,13.13,47.59359,-54.27349
2024-01-23 18:14:00+00:00,267.0,10.68,266.0,11.8,13.29,47.59359,-54.27349
2024-01-23 18:24:00+00:00,268.0,8.58,270.0,9.77,13.29,47.59359,-54.27349
2024-01-23 18:34:00+00:00,275.0,11.23,273.0,13.32,13.29,47.59359,-54.27349
2024-01-23 18:44:00+00:00,267.0,10.37,264.0,11.25,13.29,47.59359,-54.27349
2024-01-23 18:54:00+00:00,267.0,11.04,270.0,13.23,13.29,47.59359,-54.27349
2024-01-23 19:04:00+00:00,275.0,13.3,277.0,16.05,13.29,47.59359,-54.27349
2024-01-23 19:14:00+00:00,284.0,12.04,287.0,14.18,12.97,47.59359,-54.27349
2024-01-23 19:24:00+00:00,286.0,10.42,284.0,12.43,12.97,47.59359,-54.27349
2024-01-23 19:34:00+00:00,300.0,12.47,291.0,14.86,12.97,47.59359,-54.27349
2024-01-23 19:44:00+00:00,283.0,12.83,285.0,16.25,12.97,47.59359,-54.27349
2024-01-23 19:54:00+00:00,279.0,10.43,268.0,12.88,12.97,47.59359,-54.27349
2024-01-23 20:04:00+00:00,294.0,9.89,295.0,10.89,12.97,47.59359,-54.27349
2024-01-23 20:14:00+00:00,291.0,10.5,295.0,11.86,12.97,47.59359,-54.27349
2024-01-23 20:24:00+00:00,305.0,12.57,305.0,15.09,12.97,47.59359,-54.27349
2024-01-23 20:34:00+00:00,317.0,14.43,315.0,17.75,12.97,47.59359,-54.27349
2024-01-23 20:44:00+00:00,311.0,12.66,310.0,18.45,12.97,47.59359,-54.27349
2024-01-23 20:54:00+00:00,312.0,14.22,309.0,17.78,12.97,47.59359,-54.27349
2024-01-23 21:04:00+00:00,328.0,10.93,328.0,12.9,12.97,47.59359,-54.27349
2024-01-23 21:14:00+00:00,320.0,13.55,309.0,16.41,12.41,47.59359,-54.27349
2024-01-23 21:24:00+00:00,330.0,10.21,325.0,12.09,12.41,47.59359,-54.27349
2024-01-23 21:34:00+00:00,317.0,10.26,305.0,14.03,12.41,47.59359,-54.27349
2024-01-23 21:44:00+00:00,333.0,10.65,340.0,13.37,12.41,47.59359,-54.27349
2024-01-23 21:54:00+00:00,333.0,11.25,338.0,12.89,12.41,47.59359,-54.27349
2024-01-23 22:04:00+00:00,327.0,12.12,330.0,14.14,12.41,47.59359,-54.27349
2024-01-23 22:14:00+00:00,331.0,10.35,329.0,12.1,12.33,47.59359,-54.27349
2024-01-23 22:24:00+00:00,323.0,7.06,323.0,8.69,12.33,47.59359,-54.27349
2024-01-23 22:34:00+00:00,337.0,6.49,341.0,8.03,12.33,47.59359,-54.27349
2024-01-23 22:44:00+00:00,333.0,11.07,329.0,14.91,12.33,47.59359,-54.27349
2024-01-23 22:54:00+00:00,315.0,9.09,310.0,10.48,12.33,47.59359,-54.27349
2024-01-23 23:04:00+00:00,320.0,8.42,326.0,11.49,12.33,47.59359,-54.27349
2024-01-23 23:14:00+00:00,317.0,8.71,324.0,10.66,12.25,47.59359,-54.27349
2024-01-23 23:24:00+00:00,315.0,9.97,318.0,12.02,12.25,47.59359,-54.27349
2024-01-23 23:34:00+00:00,311.0,8.44,321.0,10.62,12.25,47.59359,-54.27349
2024-01-23 23:44:00+00:00,328.0,8.57,312.0,11.85,12.25,47.59359,-54.27349
2024-01-23 23:54:00+00:00,313.0,10.28,310.0,12.43,12.25,47.59359,-54.27349
